Location: Castillon
(43.0896°N, 0.2156°E)
Time: 02:53:28
(UTC+00:00)

NOSS 3-2 (C) - Pass Details

Date: 16 June 2021
Orbit: 778 x 1434 km, 63.4° (Epoch: 14 July)

Event Time Altitude Azimuth Distance (km) Brightness Sun altitude
Rises 21:08:54 0° 232° (SW) 3,319 6.3 -12.8°
Reaches altitude 10° 21:11:16 10° 238° (WSW) 2,439 5.7 -13.0°
Maximum altitude 21:16:43 51° 314° (NW) 1,125 4.3 -13.7°
Drops below altitude 10° 21:23:02 10° 30° (NNE) 2,811 6.2 -14.4°
Sets 21:25:57 0° 35° (NE) 3,874 6.9 -14.7°
